Torna al catalogo

STARLINK-35839

AttivoComunicazioniVLEO
NORAD 67169·PAYLOAD·🇺🇸 United States

Lanciato Dec 17, 2025 da Cape Canaveral Space Force Station

Loading…

Prossimi Passaggi (prossime 24 ore)

TLE

AggiornatoSource: CelesTrak SupGP

Epoca: Sep 14, 2026, 22:41 UTC

1 67169C 25303G   26257.94562500 -.00007474  00000+0 -27068-3 0  2571
2 67169  43.0013 322.3104 0001416 264.9401 131.3903 15.27585450    18

Traccia STARLINK-35839 in tempo reale con AllMySat

Download on the App Store